Saguache, CO

4:26 AM MDT on May 26, 2017 (GMT -0600)
Saguache

Weather History for K04V - January, 2014

Change the Weather History Date:

Thursday, January 9, 2014

  Actual Average (KALS) Record (KALS)
Temperature  
Mean Temperature 14 °F -  
Max Temperature 21 °F 30 °F 51 °F (1978)
Min Temperature 8 °F -7 °F -30 °F (1944)
Degree Days  
Heating Degree Days 50    
Moisture  
Dew Point 10 °F    
Average Humidity 88    
Maximum Humidity 93    
Minimum Humidity 74    
Precipitation  
Precipitation 0.00 in - - ()
Sea Level Pressure  
Sea Level Pressure 29.96 in    
Wind  
Wind Speed 3 mph (North)    
Max Wind Speed 10 mph    
Max Gust Speed -    
Visibility 6 miles    
Events Fog , Snow    
Averages and records for this station are not official NWS values.
T = Trace of Precipitation, MM = Missing Value Source: NWS Daily Summary

Daily Weather History Graph

Daily Weather History Graph

Search for Another Location

Airport or City:

Trip Planner

Search our weather history database for the weather conditions in past years. The results will help you decide how hot, cold, wet, or windy it might be!

Date:

Astronomy

Jan. 09, 2014 Rise Set
Actual Time 7:21 AM MST 5:02 PM MST
Civil Twilight 6:51 AM MST 5:32 PM MST
Nautical Twilight 6:19 AM MST 6:04 PM MST
Astronomical Twilight 5:47 AM MST 6:36 PM MST
Moon 12:29 PM MST (1/9) 1:33 AM MST (1/9)
Length of Visible Light 10h 40m
Length of Day
9h 41m
Waxing Gibbous, 66% of the Moon is Illuminated
Jan 9
Waxing Gibbous
Jan 15
Full
Jan 23
Last Quarter
Jan 30
New
Feb 6
First Quarter

Hourly Weather History & Observations

Time (MST) Temp. Windchill Dew Point Humidity Pressure Visibility Wind Dir Wind Speed Gust Speed Precip Events Conditions
12:12 AM 12.2 °F 1.7 °F 10.4 °F 92% 30.07 in 10.0 mi WNW 6.9 mph - N/A   Clear
12:29 AM 10.4 °F - 8.6 °F 92% 30.06 in 10.0 mi Calm Calm - N/A   Clear
12:52 AM 12.2 °F 6.1 °F 8.6 °F 85% 30.05 in 10.0 mi WNW 3.5 mph - N/A   Scattered Clouds
1:09 AM 12.2 °F - 8.6 °F 85% 30.05 in 10.0 mi Calm Calm - N/A   Scattered Clouds
1:29 AM 8.6 °F -2.6 °F 5.0 °F 85% 30.04 in 10.0 mi North 6.9 mph - N/A   Mostly Cloudy
1:50 AM 10.4 °F -3.3 °F 6.8 °F 85% 30.05 in 10.0 mi NNW 10.4 mph - N/A   Mostly Cloudy
2:08 AM 10.4 °F -3.3 °F 8.6 °F 92% 30.04 in 10.0 mi NW 10.4 mph - N/A   Mostly Cloudy
2:32 AM 10.4 °F 4.0 °F 6.8 °F 85% 30.05 in 10.0 mi North 3.5 mph - N/A   Scattered Clouds
2:48 AM 10.4 °F -0.4 °F 8.6 °F 92% 30.05 in 10.0 mi NW 6.9 mph - N/A   Scattered Clouds
3:08 AM 8.6 °F -4.7 °F 6.8 °F 92% 30.04 in 10.0 mi NNW 9.2 mph - N/A   Scattered Clouds
3:32 AM 8.6 °F - 6.8 °F 92% 30.03 in 10.0 mi Calm Calm - N/A   Mostly Cloudy
3:52 AM 8.6 °F 2.0 °F 6.8 °F 92% 30.03 in 10.0 mi ESE 3.5 mph - N/A   Mostly Cloudy
4:12 AM 8.6 °F - 5.0 °F 85% 30.02 in 10.0 mi Calm Calm - N/A   Scattered Clouds
4:31 AM 10.4 °F - 8.6 °F 92% 30.02 in 4.0 mi Calm Calm - N/A Snow Light Snow
4:50 AM 10.4 °F - 8.6 °F 92% 30.02 in 10.0 mi Calm Calm - N/A   Scattered Clouds
5:12 AM 10.4 °F - 8.6 °F 92% 30.02 in 5.0 mi Calm Calm - N/A   Overcast
5:32 AM 12.2 °F 2.9 °F 8.6 °F 85% 30.02 in 10.0 mi ESE 5.8 mph - N/A   Overcast
5:49 AM 8.6 °F - 5.0 °F 85% 30.02 in 7.0 mi Calm Calm - N/A   Overcast
6:09 AM 8.6 °F - 6.8 °F 92% 30.03 in 5.0 mi Calm Calm - N/A   Overcast
6:32 AM 10.4 °F 4.0 °F 8.6 °F 92% 30.02 in 0.2 mi East 3.5 mph - N/A Fog Light Freezing Fog
6:49 AM 12.2 °F - 8.6 °F 85% 30.03 in 0.5 mi Calm Calm - N/A Snow Light Snow
7:09 AM 10.4 °F - 8.6 °F 92% 30.03 in 0.2 mi Calm Calm - N/A Snow Light Snow
7:32 AM 10.4 °F - 8.6 °F 92% 30.03 in 0.2 mi Calm Calm - N/A Snow Light Snow
7:52 AM 12.2 °F - 8.6 °F 85% 30.03 in 0.2 mi Calm Calm - N/A Snow Light Snow
8:12 AM 12.2 °F - 8.6 °F 85% 30.04 in 0.2 mi Calm Calm - N/A Fog Light Freezing Fog
8:29 AM 12.2 °F - 10.4 °F 92% 30.04 in 0.2 mi Calm Calm - N/A Fog Light Freezing Fog
8:52 AM - - - N/A% 30.05 in 0.2 mi Calm Calm - N/A   Overcast
9:09 AM - - - N/A% 30.05 in 0.2 mi Calm Calm - N/A   Overcast
9:32 AM - - - N/A% 30.06 in 0.2 mi SSE 3.5 mph - N/A   Overcast
9:49 AM - - - N/A% 30.06 in 0.2 mi ESE 3.5 mph - N/A   Overcast
10:08 AM - - - N/A% 30.07 in 0.2 mi East 3.5 mph - N/A   Overcast
10:31 AM - - - N/A% 30.06 in 0.2 mi Calm Calm - N/A   Overcast
10:52 AM - - - N/A% 30.04 in 0.2 mi Calm Calm - N/A Fog Fog
11:09 AM - - - N/A% 30.03 in 0.2 mi Calm Calm - N/A   Overcast
11:30 AM - - - N/A% 30.01 in 0.5 mi Calm Calm - N/A   Unknown
11:50 AM - - - N/A% 30.00 in 1.2 mi Calm Calm - N/A   Unknown
12:10 PM - - - N/A% 29.98 in 1.2 mi Calm Calm - N/A   Overcast
12:29 PM - - - N/A% 29.97 in 5.0 mi Calm Calm - N/A   Haze
12:52 PM - - - N/A% 29.95 in 7.0 mi Calm Calm - N/A   Mostly Cloudy
1:32 PM - - - N/A% 29.92 in 10.0 mi Calm Calm - N/A   Clear
1:49 PM - - - N/A% 29.92 in 10.0 mi Calm Calm - N/A   Clear
2:09 PM - - - N/A% 29.92 in 10.0 mi Calm Calm - N/A   Clear
2:32 PM 21.2 °F - 14.0 °F 74% 29.91 in 10.0 mi Calm Calm - N/A   Clear
2:50 PM 19.4 °F 14.3 °F 14.0 °F 80% 29.91 in 10.0 mi NW 3.5 mph - N/A   Scattered Clouds
3:07 PM 19.4 °F 14.3 °F 14.0 °F 80% 29.90 in 10.0 mi North 3.5 mph - N/A   Mostly Cloudy
4:12 PM 17.6 °F 8.2 °F 14.0 °F 86% 29.90 in 10.0 mi West 6.9 mph - N/A   Overcast
4:32 PM 17.6 °F 9.3 °F 14.0 °F 86% 29.89 in 10.0 mi NW 5.8 mph - N/A   Overcast
4:49 PM 17.6 °F 10.7 °F 14.0 °F 86% 29.88 in 10.0 mi NNW 4.6 mph - N/A   Overcast
5:12 PM 17.6 °F - 14.0 °F 86% 29.88 in 10.0 mi Calm Calm - N/A   Overcast
5:28 PM 17.6 °F 12.3 °F 14.0 °F 86% 29.88 in 10.0 mi NW 3.5 mph - N/A   Overcast
5:49 PM 19.4 °F 12.8 °F 14.0 °F 80% 29.88 in 10.0 mi NNW 4.6 mph - N/A   Overcast
6:12 PM 19.4 °F 11.5 °F 14.0 °F 80% 29.87 in 10.0 mi North 5.8 mph - N/A   Overcast
6:30 PM 17.6 °F 10.7 °F 14.0 °F 86% 29.87 in 10.0 mi NW 4.6 mph - N/A   Overcast
6:49 PM 14.0 °F 5.1 °F 12.2 °F 93% 29.87 in 10.0 mi ESE 5.8 mph - N/A   Overcast
7:09 PM 14.0 °F 3.9 °F 12.2 °F 93% 29.86 in 7.0 mi East 6.9 mph - N/A   Overcast
7:30 PM 14.0 °F 6.5 °F 12.2 °F 93% 29.86 in 7.0 mi SE 4.6 mph - N/A   Overcast
7:51 PM 14.0 °F - 12.2 °F 93% 29.86 in 7.0 mi Calm Calm - N/A   Overcast
8:08 PM 14.0 °F - 10.4 °F 86% 29.86 in 7.0 mi Calm Calm - N/A   Overcast
8:31 PM 15.8 °F 7.2 °F 12.2 °F 86% 29.86 in 7.0 mi ESE 5.8 mph - N/A   Overcast
8:52 PM 15.8 °F 10.2 °F 14.0 °F 93% 29.86 in 1.5 mi ESE 3.5 mph - N/A Snow Light Snow
9:12 PM 15.8 °F - 14.0 °F 93% 29.86 in 1.2 mi Calm Calm - N/A Snow Light Snow
9:32 PM 14.0 °F - 12.2 °F 93% 29.85 in 3.0 mi Calm Calm - N/A Snow Light Snow
9:50 PM 15.8 °F - 14.0 °F 93% 29.85 in 4.0 mi Calm Calm - N/A Snow Light Snow
10:10 PM 14.0 °F 8.2 °F 12.2 °F 93% 29.84 in 5.0 mi West 3.5 mph - N/A Snow Light Snow
10:29 PM 14.0 °F - 12.2 °F 93% 29.84 in 7.0 mi Calm Calm - N/A Snow Light Snow
10:52 PM 12.2 °F 1.7 °F 10.4 °F 92% 29.83 in 7.0 mi North 6.9 mph - N/A Snow Light Snow
11:12 PM 14.0 °F 2.9 °F 10.4 °F 86% 29.82 in 10.0 mi NNE 8.1 mph - N/A   Overcast
11:29 PM 17.6 °F 12.3 °F 14.0 °F 86% 29.81 in 10.0 mi East 3.5 mph - N/A   Overcast
11:48 PM 14.0 °F 2.9 °F 10.4 °F 86% 29.80 in 7.0 mi ESE 8.1 mph - N/A   Overcast